Back to catalog

STARLINK-30971

AliveCommunicationsVLEO
NORAD 58443·PAYLOAD·🇺🇸 United States

Launched Nov 28, 2023 from Cape Canaveral Space Force Station

Loading…

Next Passes (next 24 hours)

TLE

FreshSource: CelesTrak SupGP

Epoch: Sep 14, 2026, 22:20 UTC

1 58443C 23183G   26257.93104167  .00056399  00000+0  20423-2 0  2575
2 58443  43.0028  53.2510 0001549 276.8962  23.9182 15.27558493    13

Track STARLINK-30971 in real time with AllMySat

Download on the App Store